Regional Weather Roundup
Issued by NWS

Home | Current Version | Previous Version | Graphics & Text | Print | Product List | Glossary Off
Versions: 1 2 3 4 5 6 7 8 9 10 11 12 13 14 15 16 17 18 19 20 21 22 23 24 25 26 27 28 29 30 31 32 33 34 35 36 37 38 39 40 41 42 43 44 45 46 47 48 49 50

000
ASUS43 KMKX 040659
RWRWI

WISCONSIN REGIONAL WEATHER ROUNDUP
NATIONAL WEATHER SERVICE MILWAUKEE/SULLIVAN WI
100 AM CST WED MAR 04 2015

NOTE: "FAIR" INDICATES FEW OR NO CLOUDS BELOW 12,000 FEET WITH NO
SIGNIFICANT WEATHER AND/OR OBSTRUCTIONS TO VISIBILITY.

WIZ001-002-006>008-014>016-023>028-040800-
NORTHWEST WISCONSIN

CITY           SKY/WX    TMP DP  RH WIND       PRES   REMARKS
SUPERIOR ARPT  CLEAR      2  -8  61 W10G17    29.96R WCI -13
ASHLAND        PTCLDY     5  -5  63 W15       29.90R WCI -13
HAYWARD        CLEAR      3 -10  54 NW12G22   29.90R WCI -13
SIREN          FAIR       3  -5  68 NW9       29.97R WCI -11
CUMBERLAND     CLEAR      5  -6  61 W10       29.92R WCI -10
RICE LAKE      CLEAR      6  -5  61 W12G17    29.95R WCI -10
CHETEK         PTCLDY     6  -4  64 W6        29.94R WCI  -5
LADYSMITH      CLEAR      9   0  65 W10       29.89R WCI  -5
EAU CLAIRE     NOT AVBL
MENOMONIE      CLEAR      8  -3  61 W13G20    29.98R WCI  -8
NEW RICHMOND   CLEAR      5  -4  65 W14       29.99R WCI -13
OSCEOLA        CLEAR      5  -4  64 W10G18    30.03R WCI -10
$$

WIZ003>005-009-010-017-018-040800-
NORTH CENTRAL WISCONSIN

CITY           SKY/WX    TMP DP  RH WIND       PRES   REMARKS
MANITOWISH WTR PTCLDY     5  -4  66 NW13      29.77R WCI -12
ARBOR VITAE    CLOUDY    11   2  66 NW7       29.77R WCI   1
WOODRUFF       CLOUDY    11   2  66 NW7       29.77R WCI   1
RHINELANDER    PTCLDY     8  -2  63 W13G21    29.78R WCI  -8
EAGLE RIVER    CLEAR      8  -2  63 NW13G20   29.75R WCI  -8
LAND O LAKES   MOCLDY     9   0  65 W9G17     29.74S WCI  -4
PHILLIPS       FAIR       7  -2  66 W6        29.81R WCI  -3
TOMAHAWK       CLEAR      9  -1  64 NW9       29.80R WCI  -4
MEDFORD        CLEAR     10   0  64 W14G21    29.82R WCI  -7
MERRILL        CLEAR     12   1  60 NW8       29.81R WCI   0
$$

WIZ029-030-035-036-043>047-040800-
CENTRAL WISCONSIN

CITY           SKY/WX    TMP DP  RH WIND       PRES   REMARKS
WAUSAU         CLEAR     13   2  61 W14       29.82R WCI  -2
MOSINEE        CLEAR     14   5  67 W14       29.83R WCI  -1
MARSHFIELD     CLEAR     11   1  64 W14       29.86R WCI  -5
STEVENS POINT  CLEAR     13   4  67 W12G22    29.84R WCI   0
WAUPACA        CLEAR     21   8  56 W14G20    29.84R WCI   8
WAUTOMA        NOT AVBL
WISC RAPIDS    CLEAR     13   3  64 W12       29.89R WCI  -1
CAMP DOUGLAS   FLURRIES  14   7  73 W15G21    29.91R WCI  -1
$$

WIZ011>013-019>022-031-037>040-048>050-040800-
NORTHEAST WISCONSIN

CITY           SKY/WX    TMP DP  RH WIND       PRES   REMARKS
ANTIGO         CLEAR     11   2  66 NW16      29.76R WCI  -6
SHAWANO        CLEAR     22   5  49 W14       29.81R WCI   9
OCONTO         CLEAR     22   8  56 NW10G22   29.79R WCI  11
STURGEON BAY   CLEAR     19   7  58 W10       29.80R WCI   8
GREEN BAY      CLEAR     21   7  54 W17       29.81R WCI   7
MANITOWOC      NOT AVBL
APPLETON       CLEAR     19   7  58 W15       29.82R WCI   5
CLINTONVILLE   CLEAR     21   7  53 W12       29.81R WCI   9
OSHKOSH        CLEAR     20   9  62 NW12      29.83R WCI   8
$$

WIZ032>034-041-042-053>061-040800-
SOUTHWEST WISCONSIN

CITY           SKY/WX    TMP DP  RH WIND       PRES   REMARKS
LA CROSSE      CLEAR     12   2  64 NW15      29.99R WCI  -4
SPARTA         CLEAR     14   6  72 W8        29.95R WCI   2
VIROQUA        CLEAR     11   4  75 NW16      29.91R WCI  -6
BOSCOBEL       CLEAR     15   6  67 W3        29.98R
PRAIRIE DU CHI CLEAR     13   4  69 NW17G23   29.99R WCI  -4
PLATTEVILLE    CLEAR     13   8  79 W10       29.93R WCI   0
$$

WIZ056-057-062-063-064-067-068-040800-
SOUTH CENTRAL WISCONSIN

CITY           SKY/WX    TMP DP  RH WIND       PRES   REMARKS
REEDSBURG      CLEAR     16   9  72 NW12G18   29.90R WCI   3
BARABOO/DELLS  CLEAR     17  10  71 W12       29.88R WCI   4
LONE ROCK      NOT AVBL
MINERAL POINT  CLEAR     18  10  73 W9        29.90R WCI   6
MADISON        CLEAR     21  12  68 W9        29.88R WCI  11
MIDDLETON      CLEAR     22  12  64 NW9       29.88R WCI  12
WATERTOWN      CLOUDY    26  19  74 NW10      29.85R WCI  17
MONROE         PTCLDY    19  18  93 W14       29.87R WCI   6
JANESVILLE     PTCLDY    28  21  74 W13       29.86R WCI  18
$$

WIZ051-052-058>065-066-070>072-040800-
SOUTHEAST WISCONSIN

CITY           SKY/WX    TMP DP  RH WIND       PRES   REMARKS
MILWAUKEE      MOCLDY    29  18  63 W6        29.84R WCI  23
WAUKESHA       MOCLDY    27  19  74 W13G18    29.84R WCI  16
MILWAUKEE/TIMM CLOUDY    30  21  69 W8        29.84R WCI  23
RACINE         CLOUDY    30  21  69 W5        29.86R WCI  25
BURLINGTON     PTCLDY    26  20  78 W7        29.85R WCI  19
KENOSHA        CLOUDY    29  23  78 W7        29.85R WCI  22
FOND DU LAC    CLEAR     22  11  62 W14       29.84R WCI   9
SHEBOYGAN      MOCLDY    24  13  62 NW12      29.82R WCI  13
WEST BEND      PTCLDY    27  16  63 W13       29.82R WCI  16
JUNEAU         PTCLDY    23  13  67 W7        29.85R WCI  14
$$

LSZ147-162-040800-
LAKE SUPERIOR

STATION/POSITION TIME  TEMP    WIND        PRES    WAVE
                       AIR SEA DIR/SP/G            HT/PER
                 (UTC) (F)     (DEG/KT/KT) (MB)    (FT/S)
DEVILS ISLAND    0600    9     280/ 26/ 32 1012.4R
PORT WING        0640    7     290/ 22     1013.2R
SAXON HARBOR     0600   10     280/ 10/ 16 1011.9
$$

LMZ867-665-643>646-040800-
LAKE MICHIGAN

STATION/POSITION TIME  TEMP    WIND        PRES    WAVE
                       AIR SEA DIR/SP/G            HT/PER
                 (UTC) (F)     (DEG/KT/KT) (MB)    (FT/S)
NORTHPORT PIER   0602   23     300/  9/ 17 1007.5R
SISTER BAY       0613   19     330/ 15/ 17   N/A
KEWAUNEE LAKESHO 0600   26     290/ 11/ 19 1007.5R
SHEBOYGAN LAKESH 0600   29     280/ 11/ 12 1010.4R
PORT WASHINGTON  0600   29     290/  3/  7 1010.8
MILWAUKEE LAKESH 0600   31     280/  8/ 12   N/A
KENOSHA   LAKESH 0600   31     280/  7/ 11 1010.8R
$$

TC  - TEMPERATURE IN CELSIUS
VSB - VISIBILITY IN STATUTE MILES
WCI - WIND CHILL INDEX
HX  - HEAT INDEX




USA.gov is the U.S. government's official web portal to all federal, state and local government web resources and services.